| time (UTC) | temp F | wind direction | speed knots | gust knots | rain 1hr in | rain 24hr in | rain mn in | humidity % | barometer mb |
| 20260831040005 | 79 | 176 | 3.5 | 13.0 | 0.00 | 0.00 | 0.00 | 42 | 1017.7 |
| 20260831035506 | 79 | 202 | 5.2 | 13.0 | 0.00 | 0.00 | 0.00 | 42 | 1017.7 |
| 20260831035004 | 79 | 125 | 5.2 | 11.3 | 0.00 | 0.00 | 0.00 | 42 | 1017.6 |
| 20260831034506 | 79 | 271 | 4.3 | 13.0 | 0.00 | 0.00 | 0.00 | 42 | 1017.7 |
| 20260831034005 | 79 | 169 | 5.2 | 13.0 | 0.00 | 0.00 | 0.00 | 43 | 1017.7 |
| 20260831033507 | 79 | 187 | 5.2 | 14.8 | 0.00 | 0.00 | 0.00 | 42 | 1017.8 |
| 20260831033004 | 79 | 226 | 5.2 | 14.8 | 0.00 | 0.00 | 0.00 | 42 | 1017.5 |
| 20260831032503 | 80 | 206 | 4.3 | 11.3 | 0.00 | 0.00 | 0.00 | 41 | 1017.5 |
| 20260831031002 | 80 | 166 | 4.3 | 9.6 | 0.00 | 0.00 | 0.00 | 43 | 1017.3 |
| 20260831030459 | 80 | 193 | 4.3 | 15.6 | 0.00 | 0.00 | 0.00 | 43 | 1017.3 |
| 20260831025958 | 80 | 172 | 4.3 | 15.6 | 0.00 | 0.00 | 0.00 | 44 | 1017.3 |
| 20260831025458 | 80 | 207 | 4.3 | 12.2 | 0.00 | 0.00 | 0.00 | 44 | 1017.2 |
| 20260831024959 | 80 | 220 | 4.3 | 12.2 | 0.00 | 0.00 | 0.00 | 44 | 1017.3 |
| 20260831024453 | 80 | 120 | 4.3 | 12.2 | 0.00 | 0.00 | 0.00 | 44 | 1017.2 |
| 20260831023949 | 80 | 203 | 4.3 | 16.5 | 0.00 | 0.00 | 0.00 | 43 | 1017.3 |
| 20260831023441 | 81 | 186 | 3.5 | 16.5 | 0.00 | 0.00 | 0.00 | 41 | 1017.2 |
| 20260831022935 | 81 | 195 | 3.5 | 12.2 | 0.00 | 0.00 | 0.00 | 39 | 1017.2 |
| 20260831022428 | 81 | 158 | 3.5 | 12.2 | 0.00 | 0.00 | 0.00 | 38 | 1017.0 |
| 20260831021923 | 82 | 144 | 3.5 | 20.9 | 0.00 | 0.00 | 0.00 | 37 | 1016.9 |
| 20260831021417 | 82 | 137 | 2.6 | 10.4 | 0.00 | 0.00 | 0.00 | 36 | 1016.8 |
| 20260831020911 | 83 | 141 | 2.6 | 9.6 | 0.00 | 0.00 | 0.00 | 37 | 1016.8 |
| 20260831020404 | 83 | 203 | 3.5 | 8.7 | 0.00 | 0.00 | 0.00 | 36 | 1016.9 |
| 20260831015906 | 84 | 222 | 4.3 | 14.8 | 0.00 | 0.00 | 0.00 | 35 | 1017.0 |
| 20260831015404 | 84 | 168 | 2.6 | 14.8 | 0.00 | 0.00 | 0.00 | 34 | 1017.0 |
| 20260831014907 | 85 | 181 | 1.7 | 7.0 | 0.00 | 0.00 | 0.00 | 30 | 1016.9 |
| 20260831014404 | 85 | 113 | 1.7 | 7.0 | 0.00 | 0.00 | 0.00 | 27 | 1016.9 |
| 20260831013900 | 86 | 217 | 2.6 | 9.6 | 0.00 | 0.00 | 0.00 | 23 | 1016.9 |
| 20260831013402 | 86 | 275 | 3.5 | 9.6 | 0.00 | 0.00 | 0.00 | 22 | 1016.8 |
| 20260831012900 | 87 | 206 | 3.5 | 8.7 | 0.00 | 0.00 | 0.00 | 22 | 1016.7 |
| 20260831012358 | 87 | 223 | 4.3 | 12.2 | 0.00 | 0.00 | 0.00 | 21 | 1016.8 |